Zurück zum Katalog

STARLINK-36687

AktivKommunikationSSO
NORAD 67711·PAYLOAD·🇺🇸 United States

Gestartet Feb 7, 2026 von Vandenberg Space Force Base

Loading…

Nächste Überflüge (nächste 24 Stunden)

TLE

AktuellSource: CelesTrak SupGP

Epoche: Sep 14, 2026, 23:06 UTC

1 67711C 26025U   26257.96298611 -.00026588  00000+0 -82506-3 0  2572
2 67711  97.2858   8.0228 0001172  99.3146 212.9835 15.33464226    13

Verfolge STARLINK-36687 in Echtzeit mit AllMySat

Download on the App Store